Location: Campillo
(40.8621°N, 4.2488°W)
Time: 11:36:49
(UTC+00:00)

Cosmos 1898 Rocket - Pass Details

Date: 11 May 2021
Orbit: 753 x 784 km, 74.0° (Epoch: 13 June)

Event Time Altitude Azimuth Distance (km) Brightness Sun altitude
Exits shadow 22:47:30 78° 294° (WNW) 799 3.5 -27.7°
Drops below altitude 10° 22:52:49 10° 17° (NNE) 2,344 6.6 -28.1°
Sets 22:55:13 0° 19° (NNE) 3,279 7.5 -28.3°
